SCP
0 0 0 0 0 0 0 0 0 0 0 0 0 0 0 0 0 0 0 0 0 0 0 0 0 0 0 0 0 0 0 0 0 0 0 0 0 0 0 0 0 0 0
0 0 0 0 0 0 0 0 0 0 0 0 0 0 0 0 0 0 0 0 0 0 0 0 0 0 0 0 0 0 0 0 0 0 0 0 0 0 -0 0 0 0 0
0 0 0 0 0 0 0 0 0 0 0 0 0 0 0 0 0 0 0 0 0 0 0 0 0 0 0 0 0 0 0 0 0 0 0 0 0 0 0 0 0 0 0
0 0 0 0 0 0 0 0 0 0 0 0 0 0 0 0 0 0 0 0 0 0 0 0 0 0 0 0 0 0 0 0 0 0 0 0 0 0 0 0 0 0 0
0 0 0 0 0 0 0 0 0 0 0 0 0 0 0 0 0 0 0 0 0 0 0 0 0 0 0 0 0 0 0 0 0 0 0 -0 0 0 0 0 0 0 0
0 0 0 0 0 0 0 0 0 0 0 0 0 0 0 0 0 0 0 0 0 0 0 0 0 0 0 0 -0 0 0 0 0 0 -0 -0 0 0 0 0 0 0 0
0 0 0 0 0 0 0 0 0 0 0 0 0 0 0 0 0 0 0 0 0 0 0 0 0 0 0 0 0 0 0 0 0 0 -0 -0 0 0 0 0 0 0 0
0 0 0 0 0 0 0 0 0 0 0 0 0 0 0 0 0 0 0 0 0 0 0 0 0 0 0 0 0 0 0 0 0 0 0 0 0 -0 -0 0 0 0 0
0 0 0 0 0 0 0 0 0 0 0 0 0 0 0 0 0 0 0 0 0 0 0 0 0 0 0 0 0 0 0 0 0 0 -0 -0 -0 -0 0 0 0 0 0
0 0 0 0 0 0 0 0 0 0 0 0 0 0 0 0 0 0 0 0 0 0 0 0 0 0 0 0 0 0 0 0 0 0 0 0 -0 -0 -0 0 0 0 0
0 0 0 0 0 0 0 0 0 0 0 0 0 0 0 0 0 0 0 0 0 0 0 0 0 0 0 0 -0 0 0 0 0 0 0 0 0 -0 0 0 0 0 0
0 0 0 0 0 0 0 0 0 0 0 0 0 0 0 0 0 0 0 0 0 0 0 0 0 0 0 0 0 -0 0 0 0 0 0 0 0 -0 -0 0 -0 -0 0
0 0 0 0 0 0 0 0 0 0 0 0 0 0 0 0 0 0 0 0 0 0 0 0 0 0 0 0 0 0 0 0 0 0 0 0 0 0 0 0 0 0 -0
0 0 0 0 0 0 0 0 0 0 0 0 0 0 0 0 0 0 0 0 0 0 0 0 0 0 0 0 0 0 0 0 0 0 -0 -0 0 0 0 0 0 0 0
0 0 0 0 0 0 0 0 0 0 0 0 0 0 0 0 0 0 0 0 0 0 0 0 0 0 0 0 0 0 0 0 0 0 0 0 0 0 0 0 0 0 0
0 0 0 0 0 0 0 0 0 0 0 0 0 0 0 0 0 0 0 0 0 0 0 0 0 0 0 0 0 0 0 0 0 0 0 0 0 0 0 0 0 0 -0
0 0 0 0 0 0 0 0 0 0 0 0 0 0 0 0 0 0 0 0 0 0 0 0 0 0 0 0 0 0 0 0 0 0 0 0 0 0 0 0 0 0 -0
0 0 0 0 0 0 0 0 0 0 0 0 0 0 0 0 0 0 0 0 0 0 0 0 0 0 0 0 0 0 0 0 0 0 0 0 0 0 0 0 -0 0 -0
0 0 0 0 0 0 0 0 0 0 0 0 0 0 0 0 0 0 0 0 0 0 0 0 0 0 0 0 0 0 0 0 0 0 0 0 0 0 0 0 0 -0 -0
0 0 0 0 0 0 0 0 0 0 0 0 0 0 0 0 0 0 0 0 0 0 0 0 0 0 0 0 0 0 0 0 0 -0 -0 0 0 0 0 0 0 0 -0
0 0 0 0 0 0 0 0 0 0 0 0 0 0 0 0 0 0 0 0 0 0 0 0 0 0 0 0 0 0 0 0 0 0 0 0 0 0 -0 0 0 0 0
0 0 0 0 0 0 0 0 0 0 0 0 0 0 0 0 0 0 0 0 0 0 0 0 0 0 0 0 0 0 0 0 0 0 0 0 0 -0 -0 -0 -0 -0 -0
0 0 0 0 0 0 0 0 0 0 0 0 0 0 0 0 0 0 0 0 0 0 0 0 0 0 0 0 0 0 0 0 0 0 0 0 0 0 0 0 0 0 0
0 0 0 0 0 0 0 0 0 0 0 0 0 0 0 0 0 0 0 0 0 0 0 0 0 0 0 0 0 0 0 0 0 0 0 0 0 0 0 0 0 0 0
0 0 0 0 0 0 0 0 0 0 0 0 0 0 0 0 0 0 0 0 0 0 0 0 0 0 0 0 0 0 0 0 0 0 0 0 0 0 0 0 0 0 0
0 0 0 0 0 0 0 0 0 0 0 0 0 0 0 0 0 0 0 0 0 0 0 0 0 0 0 0 0 0 0 0 0 0 0 0 0 0 0 0 0 0 0
Wind_Speed_500mb
59 60 61 57 51 44 39 33 32 31 28 26 24 22 28 38 45 54 62 69 78 84 79 73 69 66 75 77 76 71 70 75 84 87 75 81 74 71 73 67 56 44 51
56 59 59 57 52 46 37 33 31 29 27 26 22 22 30 38 46 55 64 69 78 86 76 71 70 66 71 73 78 79 70 64 64 76 75 72 69 67 63 63 55 34 43
56 57 58 58 53 44 37 32 30 28 26 24 21 23 30 38 46 54 62 70 76 77 72 66 64 64 68 71 69 55 56 47 49 61 65 66 61 69 46 44 43 26 26
55 57 59 55 48 42 36 32 29 27 25 23 21 23 29 36 46 55 62 69 73 72 67 59 59 57 59 60 50 42 37 39 46 46 55 56 57 43 43 35 39 34 34
56 59 56 49 46 42 36 31 29 28 26 24 22 23 27 33 43 54 62 65 70 71 64 52 52 49 50 48 40 37 27 31 36 40 47 46 44 34 36 22 8 19 28
56 56 49 48 46 41 36 32 30 28 26 25 24 23 24 29 39 50 59 64 69 71 65 45 48 47 46 43 34 27 24 31 37 49 53 52 49 29 28 14 13 14 11
56 51 50 49 46 41 37 34 30 27 27 27 24 26 24 27 36 46 54 59 63 67 62 41 38 40 43 35 27 24 26 27 38 50 53 33 22 18 21 14 14 12 11
57 54 52 50 46 43 38 33 32 30 29 28 27 28 24 27 32 41 49 55 59 61 57 38 31 29 32 34 29 24 30 32 38 45 42 27 20 18 16 17 13 11 27
59 56 52 49 46 42 39 35 33 32 31 31 30 29 25 24 30 37 44 48 54 56 56 36 30 25 23 23 28 29 29 30 35 40 27 6 2 5 15 13 23 35 45
56 50 46 45 44 42 37 35 33 33 33 34 33 32 27 21 27 35 41 46 50 55 56 42 27 21 19 20 25 24 25 32 31 28 21 20 15 6 10 17 37 43 59
43 43 45 45 42 39 38 38 36 34 35 34 35 33 28 22 24 30 36 42 48 53 55 52 37 22 15 14 19 19 17 18 19 22 18 15 13 10 7 14 24 44 34
45 47 47 45 43 43 41 40 38 37 36 34 37 34 31 24 22 24 29 36 42 46 51 51 44 31 19 13 11 15 21 21 18 17 16 21 20 17 14 13 21 19 40
53 52 49 47 47 47 46 43 41 42 39 37 39 37 33 26 22 20 23 29 37 41 46 47 43 30 21 15 11 9 13 15 15 10 16 23 23 24 21 17 18 25 40
55 53 53 55 54 52 50 49 48 46 42 42 42 40 35 30 22 18 18 23 30 35 39 42 40 35 25 17 13 10 10 12 11 12 20 26 24 25 25 26 30 38 41
52 52 55 57 58 57 57 54 51 47 42 43 41 38 39 34 27 21 15 15 22 29 33 34 32 28 25 21 17 16 18 16 14 15 18 24 24 24 30 30 39 46 59
51 50 54 57 60 59 60 59 57 53 50 49 48 44 41 37 31 25 18 11 13 20 24 24 27 28 24 25 25 21 21 23 20 18 18 18 19 22 27 30 38 43 55
48 48 50 51 53 59 62 64 61 57 56 57 55 48 46 40 35 30 24 15 8 10 16 17 18 21 23 24 24 22 21 21 23 18 15 17 20 22 24 35 40 41 46
47 47 46 48 52 57 59 59 59 60 58 59 58 52 51 47 41 36 31 23 13 6 8 11 10 12 15 17 20 21 19 19 19 16 19 20 18 19 28 39 44 42 40
46 47 46 49 54 56 52 55 57 59 59 58 53 53 56 53 49 44 41 32 23 15 6 7 7 6 9 10 12 15 17 18 19 18 19 19 21 23 34 39 39 35 39
49 48 50 49 52 55 51 56 57 57 58 57 57 59 57 60 62 56 49 39 30 25 16 10 6 1 4 7 10 11 14 14 20 24 24 26 29 30 31 30 30 34 39
43 51 53 52 55 56 52 57 56 54 57 58 57 58 61 65 63 60 54 46 37 32 26 19 14 8 5 8 9 12 16 18 20 22 25 28 31 34 35 35 37 37 40
42 48 46 54 58 54 51 54 54 55 58 60 56 53 58 67 69 62 56 49 43 38 33 27 22 17 13 12 11 12 14 18 23 26 27 30 33 35 36 37 38 38 38
47 46 49 53 53 53 50 52 55 58 61 61 56 56 60 68 72 68 61 52 50 47 42 36 32 27 23 19 18 19 16 16 20 23 26 30 34 37 38 38 37 36 34
52 47 53 54 55 54 54 54 57 57 54 52 53 56 62 66 67 66 62 59 56 54 49 43 38 35 30 28 25 22 22 23 23 24 23 25 32 36 37 35 34 32 32
44 48 50 52 51 52 53 51 52 49 52 53 53 55 57 62 65 68 64 65 60 61 57 50 46 43 38 33 29 27 26 25 25 27 30 28 27 30 32 32 32 32 31
50 53 52 54 55 54 53 53 53 48 55 54 54 55 55 60 61 67 71 68 65 63 61 56 52 48 43 40 36 33 31 30 30 29 30 32 31 32 32 30 29 29 29
Wind_Direction_500mb
239 239 241 246 251 260 271 273 280 285 286 292 291 303 317 323 330 333 335 331 329 335 337 327 321 322 320 317 311 302 287 281 277 284 284 295 292 291 294 281 264 267 247
240 240 242 244 248 257 263 266 274 278 282 286 286 305 317 326 332 335 334 332 335 340 335 330 327 328 321 323 320 308 296 294 285 289 290 294 293 292 298 281 270 283 241
240 239 240 242 247 253 252 259 268 272 275 275 285 304 319 327 332 336 334 335 342 341 338 332 337 332 331 329 318 310 298 293 291 292 292 293 293 298 284 290 280 265 255
240 240 241 243 246 246 245 253 260 264 266 265 280 301 317 326 333 336 337 343 344 342 340 339 340 338 335 327 327 312 302 292 309 298 296 297 307 289 298 281 273 257 240
238 240 241 241 239 235 240 247 253 255 258 259 272 296 313 326 335 338 342 346 345 343 343 344 347 345 348 340 318 322 318 309 322 309 307 316 318 295 302 296 277 242 248
240 240 238 234 231 232 237 243 247 249 253 256 269 289 307 325 337 341 345 348 347 345 342 346 354 350 352 350 345 326 317 312 314 307 307 312 313 296 321 310 314 226 213
238 236 232 228 225 229 233 239 243 246 249 255 269 287 305 327 340 344 347 349 347 348 343 339 346 358 0 359 357 354 351 338 333 319 320 339 312 300 304 299 312 239 179
234 228 223 219 221 225 230 237 240 243 244 251 264 281 300 322 339 344 350 352 349 350 346 338 333 347 2 348 346 347 352 347 347 342 335 322 314 308 319 310 291 174 147
223 220 217 218 221 226 231 235 237 240 242 249 260 273 293 316 334 343 350 354 351 354 355 341 331 341 355 349 334 333 347 356 349 341 343 348 43 265 290 269 173 167 128
213 215 214 217 222 228 230 233 238 240 241 247 257 268 282 306 329 340 351 354 354 358 359 355 340 329 350 355 345 327 339 4 1 14 28 32 43 95 160 182 165 153 143
207 210 212 217 222 226 229 234 238 239 242 247 251 261 275 298 319 336 350 354 356 1 1 4 4 353 338 342 348 342 341 4 6 20 42 49 50 57 95 160 164 155 151
204 209 214 218 222 224 230 236 239 241 244 248 252 255 267 282 303 329 346 355 358 1 4 9 8 6 348 330 343 1 349 351 4 21 40 63 59 70 92 131 156 151 139
208 213 218 221 225 227 230 234 238 242 242 244 247 246 254 266 286 313 338 354 358 2 6 13 10 6 2 346 334 2 345 350 0 12 76 86 89 97 104 101 108 140 144
221 222 223 226 228 229 233 236 239 242 244 243 245 244 243 252 261 288 321 351 359 3 6 11 14 15 16 13 3 26 16 23 36 64 92 99 105 114 112 116 127 133 124
232 232 233 234 234 234 238 242 246 249 248 246 247 245 241 247 250 259 287 335 356 3 8 12 13 18 27 39 54 62 73 65 76 90 101 107 110 114 115 122 126 129 130
237 236 238 239 240 239 242 245 247 248 244 243 241 237 236 240 247 256 266 301 348 2 5 10 16 23 32 45 55 67 77 83 82 94 101 105 111 120 124 124 136 136 128
242 243 246 245 244 246 246 247 249 248 245 242 241 237 235 236 243 246 253 260 296 347 5 4 19 28 29 46 57 60 77 84 95 98 97 111 119 125 133 135 140 133 128
245 245 247 250 249 249 251 253 253 251 247 245 241 236 234 233 236 243 247 248 248 275 347 358 14 33 43 44 56 69 73 83 92 98 116 119 120 128 140 144 144 142 136
244 249 248 247 248 250 251 253 251 249 246 246 243 235 231 230 232 236 241 241 242 243 255 314 353 32 59 61 60 71 86 99 103 105 108 115 124 134 142 144 145 142 138
247 247 238 238 246 249 247 248 247 246 247 247 243 236 232 227 229 232 237 238 236 237 230 236 266 327 104 98 98 93 95 109 122 126 126 127 129 132 138 141 142 138 134
236 240 234 230 242 246 245 251 252 251 251 252 250 242 234 234 234 231 233 234 234 237 230 222 219 220 172 151 138 126 122 121 123 131 136 139 140 143 146 148 148 145 141
244 239 235 237 242 247 247 251 253 254 255 255 254 248 238 232 233 231 229 230 232 232 231 223 216 208 194 174 165 153 144 137 136 136 139 142 146 152 153 153 150 147 144
259 243 239 246 244 247 248 250 252 253 256 257 254 248 239 234 227 227 225 222 233 227 228 223 216 209 199 189 176 168 161 152 145 144 148 150 151 154 154 154 154 153 151
259 250 250 248 240 246 246 248 253 256 259 258 255 248 242 239 229 222 227 218 227 226 223 222 217 211 203 196 186 184 177 166 160 151 148 154 154 156 159 160 159 161 161
257 253 255 252 247 245 250 252 250 256 257 255 253 250 245 240 234 222 223 218 218 224 220 217 214 213 206 201 190 182 179 174 171 165 159 160 164 163 166 168 171 170 170
248 248 248 250 250 249 246 250 251 256 255 255 252 250 247 243 236 228 224 219 219 219 217 215 212 210 207 202 195 186 182 180 177 175 173 171 174 176 177 180 180 178 179
Wind_Speed_850mb
59 60 61 57 51 44 39 33 32 31 28 26 24 22 28 38 45 54 62 69 78 84 79 73 69 66 75 77 76 71 70 75 84 87 75 81 74 71 73 67 56 44 51
56 59 59 57 52 46 37 33 31 29 27 26 22 22 30 38 46 55 64 69 78 86 76 71 70 66 71 73 78 79 70 64 64 76 75 72 69 67 63 63 55 34 43
56 57 58 58 53 44 37 32 30 28 26 24 21 23 30 38 46 54 62 70 76 77 72 66 64 64 68 71 69 55 56 47 49 61 65 66 61 69 46 44 43 26 26
55 57 59 55 48 42 36 32 29 27 25 23 21 23 29 36 46 55 62 69 73 72 67 59 59 57 59 60 50 42 37 39 46 46 55 56 57 43 43 35 39 34 34
56 59 56 49 46 42 36 31 29 28 26 24 22 23 27 33 43 54 62 65 70 71 64 52 52 49 50 48 40 37 27 31 36 40 47 46 44 34 36 22 8 19 28
56 56 49 48 46 41 36 32 30 28 26 25 24 23 24 29 39 50 59 64 69 71 65 45 48 47 46 43 34 27 24 31 37 49 53 52 49 29 28 14 13 14 11
56 51 50 49 46 41 37 34 30 27 27 27 24 26 24 27 36 46 54 59 63 67 62 41 38 40 43 35 27 24 26 27 38 50 53 33 22 18 21 14 14 12 11
57 54 52 50 46 43 38 33 32 30 29 28 27 28 24 27 32 41 49 55 59 61 57 38 31 29 32 34 29 24 30 32 38 45 42 27 20 18 16 17 13 11 27
59 56 52 49 46 42 39 35 33 32 31 31 30 29 25 24 30 37 44 48 54 56 56 36 30 25 23 23 28 29 29 30 35 40 27 6 2 5 15 13 23 35 45
56 50 46 45 44 42 37 35 33 33 33 34 33 32 27 21 27 35 41 46 50 55 56 42 27 21 19 20 25 24 25 32 31 28 21 20 15 6 10 17 37 43 59
43 43 45 45 42 39 38 38 36 34 35 34 35 33 28 22 24 30 36 42 48 53 55 52 37 22 15 14 19 19 17 18 19 22 18 15 13 10 7 14 24 44 34
45 47 47 45 43 43 41 40 38 37 36 34 37 34 31 24 22 24 29 36 42 46 51 51 44 31 19 13 11 15 21 21 18 17 16 21 20 17 14 13 21 19 40
53 52 49 47 47 47 46 43 41 42 39 37 39 37 33 26 22 20 23 29 37 41 46 47 43 30 21 15 11 9 13 15 15 10 16 23 23 24 21 17 18 25 40
55 53 53 55 54 52 50 49 48 46 42 42 42 40 35 30 22 18 18 23 30 35 39 42 40 35 25 17 13 10 10 12 11 12 20 26 24 25 25 26 30 38 41
52 52 55 57 58 57 57 54 51 47 42 43 41 38 39 34 27 21 15 15 22 29 33 34 32 28 25 21 17 16 18 16 14 15 18 24 24 24 30 30 39 46 59
51 50 54 57 60 59 60 59 57 53 50 49 48 44 41 37 31 25 18 11 13 20 24 24 27 28 24 25 25 21 21 23 20 18 18 18 19 22 27 30 38 43 55
48 48 50 51 53 59 62 64 61 57 56 57 55 48 46 40 35 30 24 15 8 10 16 17 18 21 23 24 24 22 21 21 23 18 15 17 20 22 24 35 40 41 46
47 47 46 48 52 57 59 59 59 60 58 59 58 52 51 47 41 36 31 23 13 6 8 11 10 12 15 17 20 21 19 19 19 16 19 20 18 19 28 39 44 42 40
46 47 46 49 54 56 52 55 57 59 59 58 53 53 56 53 49 44 41 32 23 15 6 7 7 6 9 10 12 15 17 18 19 18 19 19 21 23 34 39 39 35 39
49 48 50 49 52 55 51 56 57 57 58 57 57 59 57 60 62 56 49 39 30 25 16 10 6 1 4 7 10 11 14 14 20 24 24 26 29 30 31 30 30 34 39
43 51 53 52 55 56 52 57 56 54 57 58 57 58 61 65 63 60 54 46 37 32 26 19 14 8 5 8 9 12 16 18 20 22 25 28 31 34 35 35 37 37 40
42 48 46 54 58 54 51 54 54 55 58 60 56 53 58 67 69 62 56 49 43 38 33 27 22 17 13 12 11 12 14 18 23 26 27 30 33 35 36 37 38 38 38
47 46 49 53 53 53 50 52 55 58 61 61 56 56 60 68 72 68 61 52 50 47 42 36 32 27 23 19 18 19 16 16 20 23 26 30 34 37 38 38 37 36 34
52 47 53 54 55 54 54 54 57 57 54 52 53 56 62 66 67 66 62 59 56 54 49 43 38 35 30 28 25 22 22 23 23 24 23 25 32 36 37 35 34 32 32
44 48 50 52 51 52 53 51 52 49 52 53 53 55 57 62 65 68 64 65 60 61 57 50 46 43 38 33 29 27 26 25 25 27 30 28 27 30 32 32 32 32 31
50 53 52 54 55 54 53 53 53 48 55 54 54 55 55 60 61 67 71 68 65 63 61 56 52 48 43 40 36 33 31 30 30 29 30 32 31 32 32 30 29 29 29
Wind_Direction_850mb
239 239 241 246 251 260 271 273 280 285 286 292 291 303 317 323 330 333 335 331 329 335 337 327 321 322 320 317 311 302 287 281 277 284 284 295 292 291 294 281 264 267 247
240 240 242 244 248 257 263 266 274 278 282 286 286 305 317 326 332 335 334 332 335 340 335 330 327 328 321 323 320 308 296 294 285 289 290 294 293 292 298 281 270 283 241
240 239 240 242 247 253 252 259 268 272 275 275 285 304 319 327 332 336 334 335 342 341 338 332 337 332 331 329 318 310 298 293 291 292 292 293 293 298 284 290 280 265 255
240 240 241 243 246 246 245 253 260 264 266 265 280 301 317 326 333 336 337 343 344 342 340 339 340 338 335 327 327 312 302 292 309 298 296 297 307 289 298 281 273 257 240
238 240 241 241 239 235 240 247 253 255 258 259 272 296 313 326 335 338 342 346 345 343 343 344 347 345 348 340 318 322 318 309 322 309 307 316 318 295 302 296 277 242 248
240 240 238 234 231 232 237 243 247 249 253 256 269 289 307 325 337 341 345 348 347 345 342 346 354 350 352 350 345 326 317 312 314 307 307 312 313 296 321 310 314 226 213
238 236 232 228 225 229 233 239 243 246 249 255 269 287 305 327 340 344 347 349 347 348 343 339 346 358 0 359 357 354 351 338 333 319 320 339 312 300 304 299 312 239 179
234 228 223 219 221 225 230 237 240 243 244 251 264 281 300 322 339 344 350 352 349 350 346 338 333 347 2 348 346 347 352 347 347 342 335 322 314 308 319 310 291 174 147
223 220 217 218 221 226 231 235 237 240 242 249 260 273 293 316 334 343 350 354 351 354 355 341 331 341 355 349 334 333 347 356 349 341 343 348 43 265 290 269 173 167 128
213 215 214 217 222 228 230 233 238 240 241 247 257 268 282 306 329 340 351 354 354 358 359 355 340 329 350 355 345 327 339 4 1 14 28 32 43 95 160 182 165 153 143
207 210 212 217 222 226 229 234 238 239 242 247 251 261 275 298 319 336 350 354 356 1 1 4 4 353 338 342 348 342 341 4 6 20 42 49 50 57 95 160 164 155 151
204 209 214 218 222 224 230 236 239 241 244 248 252 255 267 282 303 329 346 355 358 1 4 9 8 6 348 330 343 1 349 351 4 21 40 63 59 70 92 131 156 151 139
208 213 218 221 225 227 230 234 238 242 242 244 247 246 254 266 286 313 338 354 358 2 6 13 10 6 2 346 334 2 345 350 0 12 76 86 89 97 104 101 108 140 144
221 222 223 226 228 229 233 236 239 242 244 243 245 244 243 252 261 288 321 351 359 3 6 11 14 15 16 13 3 26 16 23 36 64 92 99 105 114 112 116 127 133 124
232 232 233 234 234 234 238 242 246 249 248 246 247 245 241 247 250 259 287 335 356 3 8 12 13 18 27 39 54 62 73 65 76 90 101 107 110 114 115 122 126 129 130
237 236 238 239 240 239 242 245 247 248 244 243 241 237 236 240 247 256 266 301 348 2 5 10 16 23 32 45 55 67 77 83 82 94 101 105 111 120 124 124 136 136 128
242 243 246 245 244 246 246 247 249 248 245 242 241 237 235 236 243 246 253 260 296 347 5 4 19 28 29 46 57 60 77 84 95 98 97 111 119 125 133 135 140 133 128
245 245 247 250 249 249 251 253 253 251 247 245 241 236 234 233 236 243 247 248 248 275 347 358 14 33 43 44 56 69 73 83 92 98 116 119 120 128 140 144 144 142 136
244 249 248 247 248 250 251 253 251 249 246 246 243 235 231 230 232 236 241 241 242 243 255 314 353 32 59 61 60 71 86 99 103 105 108 115 124 134 142 144 145 142 138
247 247 238 238 246 249 247 248 247 246 247 247 243 236 232 227 229 232 237 238 236 237 230 236 266 327 104 98 98 93 95 109 122 126 126 127 129 132 138 141 142 138 134
236 240 234 230 242 246 245 251 252 251 251 252 250 242 234 234 234 231 233 234 234 237 230 222 219 220 172 151 138 126 122 121 123 131 136 139 140 143 146 148 148 145 141
244 239 235 237 242 247 247 251 253 254 255 255 254 248 238 232 233 231 229 230 232 232 231 223 216 208 194 174 165 153 144 137 136 136 139 142 146 152 153 153 150 147 144
259 243 239 246 244 247 248 250 252 253 256 257 254 248 239 234 227 227 225 222 233 227 228 223 216 209 199 189 176 168 161 152 145 144 148 150 151 154 154 154 154 153 151
259 250 250 248 240 246 246 248 253 256 259 258 255 248 242 239 229 222 227 218 227 226 223 222 217 211 203 196 186 184 177 166 160 151 148 154 154 156 159 160 159 161 161
257 253 255 252 247 245 250 252 250 256 257 255 253 250 245 240 234 222 223 218 218 224 220 217 214 213 206 201 190 182 179 174 171 165 159 160 164 163 166 168 171 170 170
248 248 248 250 250 249 246 250 251 256 255 255 252 250 247 243 236 228 224 219 219 219 217 215 212 210 207 202 195 186 182 180 177 175 173 171 174 176 177 180 180 178 179